DELTA 1 R/B, 979

Orbit data source: Space-Track

DELTA 1 R/B, 979 is space debris in SSO originally from a launch on Fri, 22 Jan 1965 UTC launched from the Air Force Eastern Test Range (AFETR). Debris objects in space refer to the collection of defunct objects orbiting the Earth. Examples of debris include non-operational satellites, rocket bodies, and fragments generated from explosions, collisions, or faulty payload assembly.

Loading next visibility...
Identifier
979, 1965-004B
Orbit
SSO
Country
Flag of USUS
Related business
Manufacturer
ABL
Mission
Spacecraft
Bus & Motor
ALTAIR, Unknown motor
Mass
60 kg wet, 60 kg dry
Launch date (UTC)
1965-01-22 (61 years ago)
Launch vehicle
Unknown
Launch site
Air Force Eastern Test Range (AFETR)
Object type
Payload
Rocket body
Debris
Shape & HBR
Unknown
Radar Cross Section
Medium (>0.1 m² and <1 m²)

Expand to show TLE details & history
Last TLE update: 6 hours ago

TLE from 6 hours ago
0 DELTA 1 R/B
1 00979U 65004B   25292.27639704  .00000388  00000-0  48576-3 0  9990
2 00979  96.4190 259.7437 1140122  66.5461 305.1229 12.15428874686297
Epoch: 2025-10-19T06:38Z
TLE epoch observation values (Epoch: 2025-10-19T06:38:00.704Z)
Latitude
-0.00009°
Longitude
132.24539°
Altitude
1,167.441 km
Speed
7.47 km/s
True Right ascension
17h 18m 58s
True Declination
0° 00' 00"
Sunlit
Object was in daylight at epoch
Visualization orbit readout
Latitude
Unknown
Longitude
Unknown
Altitude
Unknown
Speed
Unknown
Apparent Right ascension
Unknown
Apparent Declination
Unknown
Sunlit
N/A
Visualization observer readout
Local Sidereal Time
07:00:55
Azimuth
Unknown
Elevation
Unknown
Doppler factor
Unknown
Orbital elements
Apogee altitude
2,520.538 km
Perigee altitude
699.09 km
Semi-major axis
7,987.951 km
Eccentricity
0.11401
Inclination
96.419°
RAAN
259.7437°
Arg. of periapsis
66.5461°
True anomaly
293.56587°
Mean anomaly
305.1229°
Eccentric anomaly
299.43365°
Mean motion
3.04012 °/min
Orbital period
118.42 mins
BSTAR
0.00048576
Loading maneuver chart data...
Computing Atmospheric mass density...
Loading historical data...
Loading historical data...
Loading historical data...
Loading historical data...
Loading historical data...
Loading historical data...
Loading historical data...
Other satellites on launch #4 in the year 1965 (1965-01-22 UTC)

Documentation

Showing up to 5 results
|